EW6157 Weather Reports


Display with metric or nautical units.
time (UTC)temp
F
wind
direction
speed
MPH
gust
MPH
rain 1hr
in
rain 24hr
in
rain mn
in
humidity
%
barometer
mb
20260507014517 55 29 4.0 10.0 0.00 0.00 0.00 52 1016.1
20260507013019 55 37 3.0 9.0 0.00 0.00 0.00 51 1015.5
20260507011517 56 19 7.0 13.0 0.00 0.00 0.00 50 1014.8
20260507010010 57 47 8.0 14.0 0.00 0.00 0.00 48 1014.5
20260507004523 58 45 6.0 16.0 0.00 0.00 0.00 48 1014.1
20260507003009 58 64 6.0 11.0 0.00 0.00 0.00 48 1014.1
20260507001507 58 39 7.0 16.0 0.00 0.00 0.00 47 1013.6
20260507000011 58 61 9.0 14.0 0.00 0.00 0.00 48 1013.3
20260506234508 58 49 9.0 17.0 0.00 0.00 0.00 48 1013.2
20260506233006 59 20 8.0 17.0 0.00 0.00 0.00 47 1013.3
20260506231516 58 48 7.0 19.0 0.00 0.00 0.00 48 1013.3
20260506230004 58 29 7.0 16.0 0.00 0.00 0.00 49 1013.2
20260506224504 58 39 8.0 18.0 0.00 0.00 0.00 48 1013.2
20260506223005 58 45 11.0 16.0 0.00 0.00 0.00 48 1013.5
20260506221503 58 41 10.0 14.0 0.00 0.00 0.00 48 1013.5
20260506220002 58 56 9.0 23.0 0.00 0.00 0.00 48 1013.6
20260506214503 59 38 9.0 18.0 0.00 0.00 0.00 48 1013.6
20260506213140 59 155 8.0 14.0 0.00 0.00 0.00 47 1013.6
20260506211627 60 126 8.0 13.0 0.00 0.00 0.00 47 1013.7
20260506204600 61 109 6.0 13.0 0.00 0.00 0.00 46 1013.7
20260506203102 59 124 6.0 13.0 0.00 0.00 0.00 47 1013.9
20260506201604 59 108 7.0 15.0 0.00 0.00 0.00 46 1013.7
20260506200100 59 158 6.0 18.0 0.00 0.00 0.00 46 1013.8
20260506194604 58 96 3.0 13.0 0.00 0.00 0.00 49 1013.8
20260506193052 58 165 4.0 13.0 0.00 0.00 0.00 49 1014.2
20260506191551 59 167 4.0 11.0 0.00 0.00 0.00 49 1014.2
20260506190050 58 138 6.0 10.0 0.00 0.00 0.00 48 1014.5
20260506184600 58 154 5.0 10.0 0.00 0.00 0.00 49 1014.4
20260506183059 58 107 4.0 11.0 0.00 0.00 0.00 50 1014.8
20260506181547 56 131 3.0 9.0 0.00 0.00 0.00 52 1015.0
20260506180049 58 124 5.0 8.0 0.00 0.00 0.00 48 1015.3
20260506174546 57 98 2.0 7.0 0.00 0.00 0.00 51 1015.3
20260506173049 56 351 2.0 8.0 0.00 0.00 0.00 51 1015.4
20260506171541 53 151 3.0 8.0 0.00 0.00 0.00 55 1015.4
20260506170057 54 155 2.0 8.0 0.00 0.00 0.00 54 1015.4
20260506164537 55 120 3.0 6.0 0.00 0.00 0.00 54 1015.4
20260506163034 52 115 2.0 8.0 0.00 0.00 0.00 58 1015.4
20260506161533 51 101 3.0 8.0 0.00 0.00 0.00 59 1015.3
20260506160032 50 192 1.0 9.0 0.00 0.00 0.00 60 1015.0
20260506154531 49 155 2.0 7.0 0.00 0.00 0.00 64 1014.9
20260506153024 48 202 0.0 5.0 0.00 0.00 0.00 64 1014.8
20260506151522 48 183 2.0 8.0 0.00 0.00 0.00 65 1014.8
20260506150019 47 187 1.0 7.0 0.00 0.00 0.00 67 1014.9
20260506144517 47 181 2.0 6.0 0.00 0.00 0.00 65 1014.6
20260506143025 47 188 3.0 7.0 0.00 0.00 0.00 67 1014.3
20260506141511 45 166 4.0 10.0 0.00 0.00 0.00 68 1013.9
20260506140011 44 157 5.0 10.0 0.00 0.00 0.00 70 1014.1
20260506134511 44 143 6.0 12.0 0.00 0.00 0.00 71 1013.9
20260506133009 43 158 6.0 11.0 0.00 0.00 0.00 71 1013.9
20260506131510 43 155 4.0 9.0 0.00 0.00 0.00 73 1014.1
20260506130012 42 163 4.0 8.0 0.00 0.00 0.00 74 1014.5
20260506124506 42 120 3.0 7.0 0.00 0.00 0.00 74 1014.3
20260506123006 42 158 3.0 5.0 0.00 0.00 0.00 75 1014.1
20260506121503 42 123 4.0 8.0 0.00 0.00 0.00 76 1013.9
20260506120002 41 124 2.0 8.0 0.00 0.00 0.00 78 1013.7
20260506114558 41 122 4.0 9.0 0.00 0.00 0.00 82 1013.3
20260506113058 41 129 4.0 10.0 0.00 0.00 0.00 84 1013.2
20260506111555 41 136 4.0 10.0 0.00 0.00 0.00 84 1012.6
20260506110054 41 120 5.0 11.0 0.00 0.00 0.00 86 1012.9
20260506104550 41 176 4.0 10.0 0.00 0.00 0.00 86 1012.8
20260506103053 42 120 6.0 11.0 0.00 0.00 0.00 85 1012.7
20260506101544 43 130 4.0 8.0 0.00 0.00 0.00 83 1012.5
20260506100042 43 148 4.0 9.0 0.00 0.00 0.00 82 1012.2
20260506094539 44 137 5.0 12.0 0.00 0.00 0.00 81 1011.7
20260506093036 44 159 5.0 11.0 0.00 0.00 0.00 79 1011.3
20260506091535 44 136 6.0 10.0 0.00 0.00 0.00 78 1011.0
20260506090044 44 134 5.0 10.0 0.00 0.00 0.00 78 1010.8
20260506084534 44 101 3.0 12.0 0.00 0.00 0.00 78 1011.0
20260506083032 44 105 5.0 9.0 0.00 0.00 0.00 78 1010.9
20260506081531 43 118 4.0 11.0 0.00 0.00 0.00 78 1010.6
20260506073023 43 141 4.0 8.0 0.00 0.00 0.00 79 1009.6
20260506071522 43 136 4.0 9.0 0.00 0.00 0.00 79 1010.0
20260506061515 44 141 2.0 9.0 0.00 0.00 0.00 76 1009.7
20260506050108 46 164 4.0 9.0 0.00 0.00 0.00 70 1008.0
20260506044552 47 133 4.0 13.0 0.00 0.00 0.00 67 1008.0
20260506043046 47 129 5.0 9.0 0.00 0.00 0.00 66 1007.9
20260506041536 48 129 4.0 13.0 0.00 0.00 0.00 64 1007.6
20260506040032 49 142 3.0 8.0 0.00 0.00 0.00 62 1007.8
20260506034530 50 152 5.0 8.0 0.00 0.00 0.00 61 1007.5
20260506033026 50 147 4.0 11.0 0.00 0.00 0.00 60 1007.1
20260506031529 50 126 6.0 12.0 0.00 0.00 0.00 59 1007.0
20260506030022 51 119 4.0 11.0 0.00 0.00 0.00 58 1006.8
20260506024534 52 113 6.0 14.0 0.00 0.00 0.00 56 1006.3
20260506023016 53 146 7.0 11.0 0.00 0.00 0.00 55 1006.3
20260506021512 53 136 4.0 15.0 0.00 0.00 0.00 54 1006.1
20260506020010 55 161 6.0 12.0 0.00 0.00 0.00 53 1005.6